[[{"header":{"parameterUnit":"m.s-1","parameterCategory":1,"la1":30.2991,"la2":30.254,"lo1":-89.0895,"lo2":-89.0444,"dy":0.0017,"dx":0.0017,"nx":28,"ny":28,"refTime":"2024-10-01T09:00:00:Z","depth":0,"parameterNumber":2,"parameterNumberName":"U-component_of_WINDS"},"data":[0,0,0,0,0,0,0,0,0,0,0,0,0,0,0,0,0,0,0,0,0,0,0,0,0,0,0,0,0,0,0,0,0,0,0,0,0,0,0,0,0,0,0,0,0,0,0,0,0,0,0,0,0,0,0,0,0,0,0.2897,0.2897,0,0.2927,0.2927,0.2928,0.2926,0.2925,0.2925,0.2924,0.2955,0.2956,0.2957,0,0,0,0,0,0,0,0,0,0,0,0,0,0.2838,0.2839,0.2897,0.2897,0.2897,0.2927,0.2927,0.2928,0.2926,0.2925,0.2925,0.2924,0.2955,0.2956,0.2958,0,0,0,0,0,0,0,0,0,0,0,0,0,0.2866,0.284,0.2897,0.29,0.2901,0.2927,0.2927,0.2928,0.2926,0.2925,0.2925,0.2924,0.2954,0.2956,0.2958,0.2982,0,0,0.2963,0.2964,0,0,0,0,0,0,0,0,0.2864,0.2868,0.2899,0.29,0.2901,0.2922,0.2918,0.2946,0.2926,0.2916,0.2924,0.2924,0.2945,0.2947,0.2954,0.2984,0.2985,0.2964,0.2965,0.2965,0.2966,0,0,0,0,0,0,0,0.2862,0.2866,0.2909,0.29,0.29,0.29,0.2904,0.2923,0.2934,0.2917,0.2917,0.2921,0.2945,0.2952,0.2955,0.2986,0.2963,0.2965,0.2966,0.2967,0.304,0.3041,0,0,0,0,0,0,0.2859,0.2865,0.2908,0.291,0.288,0.2902,0.2906,0.2916,0.2934,0.2936,0.2921,0.292,0.295,0.2953,0.2956,0.2988,0.2965,0.2967,0.2968,0.3039,0.304,0.3041,0,0,0,0,0,0,0.2858,0.2863,0.2906,0.2887,0.2893,0.2904,0.2915,0.2917,0.2924,0.2937,0.2939,0.2927,0.2949,0.2953,0.2977,0.2989,0.2968,0.297,0.3038,0.304,0.3041,0.3052,0,0,0,0,0,0,0.2856,0.2863,0.2872,0.2887,0.2894,0.2926,0.2916,0.2918,0.2928,0.2927,0.2943,0.2945,0.2949,0.2974,0.2978,0.2991,0.2971,0.3037,0.3039,0.3041,0.305,0.3053,0.3056,0,0,0,0,0,0.2854,0.2873,0.2872,0.2877,0.2905,0.2927,0.2931,0.2935,0.2929,0.2938,0.2947,0.2944,0.2987,0.2976,0.2981,0.2995,0.3037,0.3039,0.304,0.3049,0.3053,0.3056,0,0,0,0,0,0,0.2858,0.2875,0.2874,0.2898,0.2911,0.2927,0.2939,0.2939,0.2953,0.2952,0.2957,0.2961,0.2985,0.2992,0.298,0.3022,0.3011,0.3014,0.3016,0.3019,0.3022,0.302,0.2973,0,0,0,0,0,0.2861,0.2877,0.2891,0.2911,0.2918,0.2927,0.2937,0.294,0.2953,0.2958,0.2968,0.2982,0.2998,0.3009,0.3025,0.3051,0.3056,0.3063,0.3066,0.3068,0.3071,0.3089,0.3093,0.3048,0.3048,0.3048,0,0,0.2869,0.288,0.289,0.2912,0.2923,0.294,0.2932,0.295,0.2963,0.2961,0.2984,0.2992,0.3007,0.3033,0.3045,0.304,0.3085,0.3071,0.3072,0.3074,0.3091,0.3095,0.3099,0.3049,0.3049,0.3048,0,0,0.2891,0.2901,0.292,0.2931,0.2947,0.2954,0.2958,0.2974,0.298,0.3003,0.3003,0.3019,0.3046,0.3058,0.3068,0.3098,0.3097,0.3103,0.3117,0.3134,0.3138,0.3141,0.3154,0.3158,0.3105,0.3105,0.3105,0,0.2899,0.2924,0.2929,0.2949,0.2959,0.2959,0.298,0.299,0.301,0.3018,0.3012,0.3049,0.3059,0.3089,0.3097,0.3104,0.3111,0.3101,0.3137,0.314,0.3143,0.3156,0.316,0.3106,0.3106,0.3106,0.3106,0,0.2934,0.2952,0.2965,0.2986,0.2998,0.3018,0.3027,0.3039,0.3041,0.3048,0.3074,0.3086,0.3106,0.3113,0.3114,0.3143,0.314,0.3135,0.3125,0.3148,0.316,0.3165,0.3107,0.3107,0.3107,0.3107,0,0,0.2958,0.2984,0.2989,0.2999,0.3018,0.3033,0.3053,0.3073,0.3084,0.3098,0.3117,0.3141,0.3138,0.3149,0.3152,0.3167,0.3193,0.3161,0.3161,0.3168,0.3229,0.3234,0.3239,0.3192,0.3193,0.3194,0.3228,0,0.2984,0.302,0.3027,0.3059,0.3077,0.3078,0.3096,0.311,0.3118,0.3135,0.3144,0.3162,0.3155,0.3162,0.3177,0.3187,0.3205,0.3184,0.3211,0.3211,0.3208,0.3245,0.3249,0.3281,0.3233,0.3233,0.3234,0,0.3019,0.3037,0.307,0.309,0.3097,0.3113,0.3134,0.3149,0.3166,0.3171,0.3185,0.3187,0.3209,0.3198,0.323,0.3215,0.3226,0.3233,0.3234,0.3238,0.3225,0.3251,0.3291,0.3296,0.3241,0.324,0.324,0,0.3037,0.3068,0.3093,0.3102,0.3124,0.3136,0.3146,0.3162,0.3174,0.3192,0.3201,0.322,0.3231,0.3247,0.3255,0.3246,0.3288,0.3276,0.3294,0.3294,0.3303,0.3303,0.3347,0.3308,0.3308,0.3307,0.3307,0,0.3066,0.3087,0.3102,0.3117,0.3142,0.3149,0.3174,0.3183,0.3198,0.3216,0.3218,0.3235,0.3244,0.3263,0.327,0.3297,0.3301,0.3307,0.3309,0.3308,0.3307,0.3316,0.3315,0.3309,0.3308,0.3308,0.3308,0,0.309,0.31,0.3128,0.3147,0.3153,0.317,0.3188,0.3203,0.3212,0.3235,0.3241,0.3255,0.3278,0.3287,0.3314,0.3319,0.3351,0.335,0.3345,0.3346,0.3365,0.3364,0.3418,0.3426,0.3379,0.3379,0.338,0,0.3108,0.3125,0.3147,0.316,0.3171,0.3191,0.3204,0.3213,0.3227,0.3249,0.3263,0.3285,0.3304,0.3341,0.3353,0.3375,0.3376,0.3393,0.3379,0.3379,0.3379,0.3379,0.3382,0.3396,0.3397,0.3397,0.3398,0,0.3141,0.3146,0.3165,0.3187,0.3204,0.3221,0.3238,0.3249,0.326,0.3276,0.33,0.3315,0.3344,0.3367,0.339,0.3401,0.3402,0.3402,0.3408,0.3408,0.3406,0.3409,0.3355,0.3401,0.3401,0.34,0.34,0.34,0.3164,0.318,0.3199,0.3222,0.3236,0.3252,0.3269,0.3281,0.3301,0.3326,0.333,0.3356,0.3375,0.3406,0.3418,0.3439,0.3435,0.3442,0.3445,0.3447,0.3449,0.3401,0.3443,0.3443,0.3443,0.3443,0.3443,0,0.3199,0.3212,0.3232,0.3257,0.3275,0.3275,0.3295,0.331,0.3333,0.3351,0.337,0.3399,0.3422,0.3438,0.3462,0.3476,0.3477,0.3482,0.3482,0.3485,0.345,0.3444,0.3481,0.3481,0.3481,0.3481,0.3481,0.3481,0.3219,0.3248,0.3255,0.3291,0.3304,0.333,0.3342,0.3358,0.3372,0.3405,0.3425,0.3435,0.3452,0.3478,0.35,0.3504,0.3514,0.3519,0.3524,0.3491,0.3487,0.3483,0.3478,0.3521,0.3521,0.3557,0.3557,0.3557]},{"header":{"parameterUnit":"m.s-1","parameterCategory":1,"la1":30.2991,"la2":30.254,"lo1":-89.0895,"lo2":-89.0444,"dy":0.0017,"dx":0.0017,"nx":28,"ny":28,"refTime":"2024-10-01T09:00:00:Z","depth":0,"parameterNumber":3,"parameterNumberName":"V-component_of_WINDS"},"data":[0,0,0,0,0,0,0,0,0,0,0,0,0,0,0,0,0,0,0,0,0,0,0,0,0,0,0,0,0,0,0,0,0,0,0,0,0,0,0,0,0,0,0,0,0,0,0,0,0,0,0,0,0,0,0,0,0,0,-2.5747,-2.5747,0,-2.5791,-2.5791,-2.5792,-2.5805,-2.5805,-2.5805,-2.5804,-2.5847,-2.5849,-2.585,0,0,0,0,0,0,0,0,0,0,0,0,0,-2.5672,-2.5674,-2.5747,-2.5747,-2.5748,-2.5791,-2.5791,-2.5792,-2.5805,-2.5805,-2.5804,-2.5804,-2.5847,-2.5849,-2.585,0,0,0,0,0,0,0,0,0,0,0,0,0,-2.5709,-2.5674,-2.5747,-2.576,-2.5761,-2.5791,-2.5791,-2.5792,-2.5805,-2.5805,-2.5804,-2.5804,-2.5846,-2.5848,-2.585,-2.587,0,0,-2.5857,-2.5857,0,0,0,0,0,0,0,0,-2.5707,-2.5712,-2.5757,-2.5759,-2.5761,-2.5792,-2.5781,-2.5818,-2.5805,-2.5788,-2.5804,-2.5804,-2.5829,-2.5833,-2.5841,-2.5872,-2.5873,-2.5857,-2.5858,-2.5859,-2.5859,0,0,0,0,0,0,0,-2.5705,-2.571,-2.5764,-2.5758,-2.576,-2.5763,-2.5768,-2.5788,-2.581,-2.579,-2.5791,-2.5796,-2.583,-2.5839,-2.5843,-2.5874,-2.5857,-2.5858,-2.586,-2.5861,-2.5923,-2.5924,0,0,0,0,0,0,-2.57,-2.5708,-2.5763,-2.5765,-2.5733,-2.5764,-2.577,-2.5782,-2.581,-2.5814,-2.5796,-2.5796,-2.5836,-2.584,-2.5844,-2.5869,-2.5859,-2.5861,-2.5862,-2.5923,-2.5923,-2.5924,0,0,0,0,0,0,-2.5699,-2.5705,-2.5761,-2.5737,-2.5744,-2.5766,-2.578,-2.5783,-2.5793,-2.5815,-2.5818,-2.5802,-2.5836,-2.5841,-2.5864,-2.587,-2.5862,-2.5863,-2.5922,-2.5923,-2.5923,-2.5918,0,0,0,0,0,0,-2.5696,-2.5704,-2.5712,-2.5737,-2.5746,-2.578,-2.578,-2.5784,-2.5797,-2.5797,-2.5821,-2.5825,-2.5836,-2.586,-2.5866,-2.5873,-2.5865,-2.5922,-2.5922,-2.5923,-2.5918,-2.5918,-2.5919,0,0,0,0,0,-2.5694,-2.5708,-2.5712,-2.5719,-2.5756,-2.578,-2.5785,-2.5798,-2.5797,-2.5805,-2.5819,-2.5824,-2.5869,-2.5863,-2.5868,-2.5877,-2.5921,-2.5922,-2.5923,-2.5917,-2.5918,-2.5919,0,0,0,0,0,0,-2.5682,-2.5711,-2.5716,-2.574,-2.5757,-2.5782,-2.5792,-2.5799,-2.5817,-2.5817,-2.5832,-2.5837,-2.5859,-2.587,-2.5862,-2.5897,-2.5895,-2.5898,-2.5889,-2.589,-2.5891,-2.5887,-2.5867,0,0,0,0,0,-2.5682,-2.57,-2.5725,-2.5743,-2.5751,-2.577,-2.5781,-2.5791,-2.5809,-2.5817,-2.5832,-2.585,-2.5868,-2.588,-2.5898,-2.592,-2.5925,-2.5929,-2.5929,-2.593,-2.5931,-2.5944,-2.5946,-2.5927,-2.5927,-2.5927,0,0,-2.5682,-2.5701,-2.5711,-2.5741,-2.5756,-2.5773,-2.5777,-2.5795,-2.5808,-2.5819,-2.5841,-2.5854,-2.5875,-2.5897,-2.5907,-2.5907,-2.5938,-2.5931,-2.5931,-2.5932,-2.5945,-2.5947,-2.5949,-2.5928,-2.5927,-2.5927,0,0,-2.5692,-2.5708,-2.5725,-2.574,-2.5763,-2.5776,-2.578,-2.5804,-2.5813,-2.5836,-2.5845,-2.5861,-2.5892,-2.5907,-2.5918,-2.5935,-2.594,-2.594,-2.5944,-2.5956,-2.5958,-2.5959,-2.5965,-2.5967,-2.5942,-2.5942,-2.5942,0,-2.5689,-2.5717,-2.5732,-2.5751,-2.5764,-2.5776,-2.5793,-2.5807,-2.5834,-2.5843,-2.5842,-2.5882,-2.5897,-2.5923,-2.5928,-2.5936,-2.5942,-2.5937,-2.5956,-2.5958,-2.596,-2.5965,-2.5968,-2.5942,-2.5942,-2.5942,-2.5942,0,-2.5712,-2.5731,-2.5742,-2.577,-2.5784,-2.5801,-2.582,-2.5832,-2.5841,-2.5853,-2.5877,-2.5895,-2.5918,-2.5925,-2.5932,-2.5952,-2.5951,-2.5953,-2.5952,-2.5961,-2.5967,-2.5969,-2.5942,-2.5942,-2.5942,-2.5942,0,0,-2.5714,-2.5751,-2.5755,-2.5768,-2.5795,-2.581,-2.5828,-2.5851,-2.5861,-2.588,-2.5896,-2.5923,-2.5925,-2.5938,-2.5948,-2.5959,-2.5972,-2.596,-2.5961,-2.5962,-2.5995,-2.5993,-2.5996,-2.5976,-2.5977,-2.5977,-2.5994,0,-2.5727,-2.5761,-2.5776,-2.5804,-2.5822,-2.5834,-2.585,-2.5869,-2.5881,-2.5898,-2.5913,-2.5931,-2.5933,-2.5941,-2.5953,-2.5968,-2.5979,-2.5967,-2.599,-2.5991,-2.5984,-2.5999,-2.5996,-2.6011,-2.5996,-2.5996,-2.5997,0,-2.5746,-2.5766,-2.5795,-2.5821,-2.5829,-2.5844,-2.5866,-2.5883,-2.5904,-2.5912,-2.5928,-2.5937,-2.5957,-2.5955,-2.5983,-2.5974,-2.5985,-2.5994,-2.5995,-2.5997,-2.5994,-2.6001,-2.6016,-2.6018,-2.6,-2.6,-2.6,0,-2.5745,-2.5779,-2.5801,-2.5812,-2.5842,-2.5852,-2.5865,-2.5886,-2.5899,-2.5919,-2.5928,-2.5949,-2.5961,-2.5977,-2.5992,-2.5989,-2.6019,-2.6018,-2.6026,-2.6026,-2.6031,-2.603,-2.6048,-2.6039,-2.6039,-2.6039,-2.6039,0,-2.5757,-2.5774,-2.5801,-2.5814,-2.5834,-2.5852,-2.5871,-2.5885,-2.5904,-2.592,-2.5932,-2.5947,-2.5967,-2.5984,-2.5997,-2.6018,-2.6023,-2.603,-2.6033,-2.6029,-2.6028,-2.6036,-2.6035,-2.6039,-2.6039,-2.6039,-2.6039,0,-2.5758,-2.5777,-2.5802,-2.5829,-2.5837,-2.585,-2.5874,-2.5887,-2.5901,-2.5922,-2.5928,-2.595,-2.5971,-2.5988,-2.6016,-2.6024,-2.6046,-2.605,-2.6039,-2.6041,-2.6048,-2.6047,-2.6071,-2.6075,-2.6063,-2.6064,-2.6064,0,-2.5765,-2.5779,-2.5808,-2.582,-2.5834,-2.5853,-2.5867,-2.5885,-2.5899,-2.5925,-2.5935,-2.5958,-2.5976,-2.601,-2.6028,-2.605,-2.6054,-2.606,-2.6057,-2.6052,-2.6053,-2.6052,-2.6054,-2.606,-2.606,-2.606,-2.606,0,-2.5774,-2.5783,-2.5803,-2.5826,-2.5843,-2.5861,-2.5881,-2.589,-2.5912,-2.5926,-2.5949,-2.5964,-2.5993,-2.6015,-2.6039,-2.6052,-2.606,-2.6062,-2.6065,-2.606,-2.6053,-2.6057,-2.604,-2.6061,-2.6061,-2.6061,-2.6061,-2.6061,-2.5778,-2.5791,-2.5815,-2.5836,-2.5853,-2.5871,-2.5885,-2.5902,-2.5921,-2.5947,-2.5956,-2.5979,-2.6001,-2.6034,-2.6047,-2.6066,-2.6066,-2.6071,-2.6072,-2.6072,-2.6072,-2.6051,-2.607,-2.607,-2.607,-2.607,-2.607,0,-2.5788,-2.5804,-2.5824,-2.5851,-2.5868,-2.5876,-2.5898,-2.5911,-2.5932,-2.5952,-2.597,-2.5997,-2.6019,-2.6039,-2.6062,-2.6073,-2.6077,-2.6078,-2.6077,-2.608,-2.607,-2.6065,-2.6074,-2.6074,-2.6074,-2.6074,-2.6074,-2.6074,-2.5796,-2.5818,-2.583,-2.5861,-2.5877,-2.59,-2.5912,-2.5929,-2.5945,-2.5974,-2.5993,-2.6006,-2.6027,-2.6051,-2.6072,-2.6077,-2.6085,-2.6085,-2.6091,-2.6081,-2.6081,-2.608,-2.6075,-2.6087,-2.6087,-2.61,-2.61,-2.61]}]]